Wind_Speed
12 12 13 13 13 13 13 13 13 13 13 13 13 13 13 13 13 13 13 13 13 14 14 15 15 15 15 16 16 16 16 16 15 15 15 16 17 17 18 18 17 17 17 18 18 18 18 17 17 17 17 17 18 18 18 19 18 19 20 21 22 21 20 17 16 18 21 20 19 19 20 23 22 20 22 25 24 22 22 21 21 22 21 21 21 21 22 22
14 14 14 14 14 15 15 15 15 15 15 15 16 16 16 16 15 16 15 15 15 15 15 15 16 16 16 17 17 18 18 18 17 17 17 18 18 19 19 19 19 19 19 20 20 20 20 20 20 19 19 18 19 19 20 20 20 21 22 25 24 22 21 20 19 19 21 22 23 23 23 24 23 22 24 26 25 24 25 22 22 23 21 20 21 22 22 22
15 16 15 16 16 16 16 17 17 17 17 17 17 17 18 18 18 18 18 17 17 17 17 17 17 17 17 18 18 19 19 19 18 18 18 19 19 19 19 19 19 19 20 20 21 21 21 21 22 22 21 20 21 21 22 21 22 23 25 27 25 22 23 23 21 19 21 23 26 26 25 25 24 25 27 28 28 27 26 23 22 23 22 20 22 24 25 24
17 17 17 17 17 18 18 18 18 19 19 19 19 19 19 19 19 19 20 20 20 20 19 19 19 19 18 18 18 19 20 20 19 18 19 19 19 19 19 19 19 19 19 19 20 20 20 21 22 22 22 23 23 24 24 22 23 25 27 28 25 23 25 24 22 21 22 25 27 26 27 26 25 27 29 29 31 29 25 22 23 24 22 21 21 23 25 26
18 18 18 19 19 19 19 19 20 20 20 21 21 21 21 21 21 21 21 21 21 21 21 21 21 21 21 21 20 20 21 20 18 16 17 17 17 17 17 18 18 18 18 19 19 20 21 21 22 22 24 25 26 26 25 23 23 27 29 28 26 26 27 25 23 23 24 26 27 27 28 28 29 30 30 31 33 30 24 23 25 23 20 21 21 21 22 24
20 20 20 20 20 20 20 21 21 21 22 22 23 23 23 23 23 23 23 23 23 23 23 23 23 23 23 23 23 22 23 21 16 17 19 18 19 18 18 18 18 19 20 21 21 22 22 22 23 24 25 26 27 26 25 24 25 29 30 29 27 27 28 27 25 26 26 28 28 27 29 30 31 31 32 34 33 29 25 25 25 22 19 22 22 22 22 22
22 22 22 22 22 22 22 22 22 23 23 23 24 24 24 24 24 24 24 24 24 24 24 24 24 25 24 25 24 24 26 23 18 21 23 22 22 22 21 21 21 23 24 24 24 24 24 24 24 24 25 26 27 27 26 26 27 30 31 29 27 28 30 28 27 29 29 29 29 29 30 30 31 33 36 38 34 28 26 26 25 21 20 22 23 23 23 23
23 23 23 23 23 23 23 23 23 24 24 25 25 25 26 26 26 26 25 25 25 25 25 25 25 25 25 26 26 27 28 24 19 22 24 24 23 22 22 22 23 24 24 25 24 24 25 25 24 24 26 26 27 28 27 27 29 31 31 29 29 30 31 29 29 31 31 31 31 33 33 31 31 35 41 41 34 28 26 27 25 22 23 24 23 23 24 24
25 25 25 25 25 25 25 25 25 25 25 25 26 26 27 27 27 27 26 26 26 26 26 26 27 26 27 27 27 29 26 20 18 21 22 22 22 22 22 22 23 24 24 25 25 26 26 26 25 26 27 27 29 29 29 29 31 31 31 31 31 32 33 32 33 33 33 33 33 36 35 32 32 37 46 42 32 28 27 26 26 26 27 26 25 24 24 24
26 26 26 26 26 26 25 25 25 25 25 26 26 27 27 27 28 27 27 27 27 27 27 28 28 27 28 27 29 30 22 18 20 21 22 23 23 23 24 25 26 26 26 27 28 28 28 28 28 28 29 29 30 30 30 31 32 33 33 34 33 34 34 34 35 35 35 34 35 39 38 35 34 39 47 41 31 28 28 28 29 30 30 29 29 27 26 26
28 28 28 27 27 27 27 27 26 26 26 26 27 27 28 28 28 28 28 27 27 28 28 28 28 29 29 29 31 29 21 21 24 23 24 24 24 25 26 27 28 29 29 30 30 30 31 30 30 30 30 30 30 30 32 32 34 34 35 37 35 35 36 36 38 37 37 37 36 40 41 37 35 40 45 38 32 31 30 30 30 32 31 31 32 31 30 29
29 29 30 29 29 29 29 29 28 28 28 29 29 29 29 29 29 29 29 29 28 29 29 29 30 29 30 30 29 25 23 24 25 25 25 24 23 25 26 28 29 30 31 31 31 32 32 31 32 31 30 30 30 30 32 33 35 35 36 38 38 38 39 37 37 37 38 38 37 38 42 41 37 39 39 35 32 32 32 32 32 32 32 32 33 33 33 32
29 29 30 30 30 29 29 29 29 29 29 30 30 30 30 30 31 31 31 31 30 31 31 31 32 31 33 31 26 24 24 24 25 24 24 23 24 26 27 28 29 31 32 33 33 33 33 33 33 32 30 31 30 30 33 35 37 37 37 40 41 42 40 36 35 36 36 37 38 37 41 44 38 35 35 34 34 35 35 34 33 34 34 34 34 35 35 34
29 29 29 30 29 29 29 29 28 28 29 29 29 30 30 30 31 31 31 32 32 32 32 32 33 33 36 33 26 27 27 26 26 25 25 25 25 25 26 27 28 30 32 32 32 32 32 32 32 31 29 28 28 30 33 36 37 36 37 40 40 41 41 35 33 35 36 37 38 37 42 48 43 36 34 34 36 37 38 37 36 36 36 36 36 37 38 37
30 30 30 30 30 30 29 29 29 29 29 29 30 29 29 29 30 30 31 31 31 31 31 32 33 34 37 34 29 29 29 27 27 25 25 25 24 24 25 27 29 30 31 31 31 31 31 31 31 30 27 26 26 29 35 37 36 34 36 39 39 41 43 36 31 32 35 38 41 40 44 50 46 38 33 33 38 39 41 41 38 39 39 40 40 40 41 40
31 31 31 31 30 30 30 30 30 30 30 30 30 31 30 30 30 30 30 31 31 31 31 31 31 33 35 34 30 30 29 28 28 26 25 25 25 27 28 29 29 29 29 30 30 30 31 32 32 30 28 28 27 32 38 38 36 35 36 40 40 41 42 39 34 32 36 42 43 43 47 52 48 41 35 33 38 41 44 43 40 41 42 41 41 41 41 41
30 30 31 31 30 30 30 30 30 30 31 31 31 31 32 31 31 31 30 31 31 31 31 32 32 35 36 34 31 29 28 28 26 24 23 24 25 27 27 28 27 26 26 26 27 29 30 32 32 32 29 28 27 31 34 33 35 37 37 40 41 39 40 41 38 34 36 42 44 46 52 54 49 44 41 37 37 42 46 46 43 42 43 43 42 42 41 41
29 29 30 30 30 30 29 29 29 29 30 31 32 32 32 33 33 33 32 32 32 32 33 33 33 34 34 29 27 26 26 26 26 24 24 25 27 28 29 30 30 31 31 31 32 33 34 35 34 32 29 29 30 33 35 33 37 40 38 40 41 41 40 40 41 37 36 43 46 48 54 55 51 47 45 41 38 41 44 45 45 44 43 42 42 41 41 40
28 28 29 29 29 29 28 28 28 29 29 30 31 32 32 33 34 34 33 32 32 32 33 33 32 34 32 29 29 30 29 29 29 28 27 27 29 31 32 33 34 35 36 36 37 37 36 37 36 34 34 36 37 38 39 38 41 42 41 41 42 43 43 41 41 38 37 45 48 49 55 57 54 49 45 42 39 41 43 43 43 43 42 41 40 40 38 39
27 28 28 28 28 27 27 27 27 28 28 28 30 30 32 33 34 34 34 33 33 33 34 34 35 37 37 35 34 33 33 31 30 29 29 29 31 32 33 35 36 37 37 37 38 38 38 40 41 40 39 39 39 38 39 39 39 40 41 41 42 44 45 42 40 38 37 47 54 51 54 57 54 51 47 42 41 40 40 41 42 42 41 41 39 38 37 36
27 27 27 27 27 27 27 27 27 27 27 28 28 29 30 32 33 34 36 36 33 33 35 35 36 39 38 35 34 34 34 33 31 31 31 31 32 34 36 37 38 38 37 36 37 38 40 44 44 41 40 39 38 37 38 39 39 39 40 41 43 43 46 45 42 40 38 47 55 50 53 60 56 52 48 42 42 43 40 40 40 39 38 39 37 36 35 34
27 27 27 27 27 27 27 26 26 26 27 27 27 28 29 30 32 34 38 41 37 34 36 36 37 40 37 33 34 34 35 35 33 32 32 32 33 35 38 39 39 40 39 36 36 39 43 47 44 38 36 35 35 35 36 37 37 37 38 40 44 43 46 48 43 39 39 44 51 51 57 63 56 53 52 45 43 41 36 33 33 35 36 36 36 35 34 33
26 26 27 27 27 27 27 26 26 26 26 26 26 27 28 30 31 33 37 43 43 37 36 37 38 39 36 32 32 31 34 36 34 31 31 33 35 35 38 40 41 41 41 39 39 42 44 43 38 34 32 33 34 34 32 34 37 39 39 40 46 44 44 48 44 40 40 44 50 51 58 66 59 51 42 32 33 35 33 33 32 33 36 37 35 30 27 26
26 26 27 27 27 26 26 26 25 25 25 25 26 26 28 29 31 34 37 43 47 43 38 39 40 38 34 31 31 31 35 36 35 33 32 34 36 36 39 41 41 43 43 41 41 44 45 41 37 36 37 37 37 36 34 36 41 43 42 42 44 43 40 45 45 42 42 42 44 44 53 61 44 24 19 22 33 40 37 35 32 32 36 32 24 19 18 19
27 27 27 26 25 24 24 25 25 25 25 25 26 26 28 29 31 34 37 41 47 45 37 34 34 32 27 24 24 27 31 32 32 32 31 33 35 36 39 39 40 43 42 40 40 45 46 39 36 37 37 36 37 37 33 34 40 43 41 37 37 38 39 41 39 39 39 33 29 28 30 35 24 13 26 39 42 40 32 30 33 34 28 15 10 17 20 20
28 27 27 27 26 25 24 24 25 26 25 25 26 27 28 29 31 33 35 40 44 39 27 18 16 16 15 13 13 16 21 23 23 24 26 28 31 34 37 38 39 40 39 38 38 41 42 35 32 33 32 30 30 31 28 27 36 42 37 32 32 34 37 37 33 31 29 22 23 22 12 24 40 36 36 41 36 29 26 28 31 23 7 1 10 22 22 20
27 28 28 28 28 27 26 25 26 27 26 25 26 27 28 28 30 31 31 28 26 21 11 4 1 3 6 9 8 8 11 12 12 13 15 16 20 25 30 34 34 35 36 35 33 35 34 30 28 28 28 27 26 27 28 25 30 38 36 31 31 32 32 32 29 26 28 30 31 26 13 21 44 43 34 35 30 22 21 23 18 2 10 1 21 24 17 20
28 29 30 30 30 29 28 27 28 29 27 27 27 27 28 28 28 29 22 10 9 10 5 2 3 5 8 11 11 12 14 14 13 12 13 13 16 19 22 26 27 30 32 32 35 36 32 30 31 31 31 30 29 30 30 27 29 34 34 31 29 29 29 30 30 28 29 30 23 14 8 10 33 50 40 28 20 13 15 13 2 13 4 16 26 21 18 26
30 32 32 32 33 32 31 30 31 31 29 28 26 26 27 25 26 24 13 5 8 10 8 9 10 11 13 13 14 16 19 19 18 17 17 17 19 20 21 22 21 24 27 29 37 36 31 32 32 33 33 32 31 31 32 31 32 32 31 31 28 26 28 28 30 30 23 21 15 9 8 7 29 49 31 11 8 7 8 4 15 10 13 24 21 22 30 34
34 35 34 35 35 34 34 33 31 31 29 26 24 24 24 23 23 17 7 9 12 13 14 16 15 14 16 17 17 19 20 20 21 22 22 22 23 23 23 23 22 25 26 29 34 34 32 33 34 34 33 31 31 30 32 33 32 32 30 30 30 28 30 27 27 24 12 13 20 20 18 13 17 24 10 2 3 7 5 6 10 11 22 18 19 33 39 32
35 36 36 36 35 34 33 29 27 28 26 24 24 22 21 22 19 9 7 13 16 15 16 15 13 13 16 18 19 21 21 22 24 23 22 23 22 22 23 22 21 23 26 29 32 32 32 32 33 34 31 30 31 30 32 33 33 33 29 28 26 21 20 17 15 12 3 10 23 22 18 17 19 13 1 3 1 7 13 14 16 21 20 22 33 37 29 18
34 34 34 34 34 32 29 25 24 24 23 23 22 21 21 19 17 19 19 18 12 7 8 8 7 8 9 14 17 20 21 21 22 21 19 20 21 22 22 22 20 19 22 27 29 31 35 36 34 35 36 36 34 32 32 33 33 32 30 27 17 8 8 6 4 3 6 15 23 15 8 18 36 38 25 22 27 29 29 24 22 20 24 34 35 22 13 11
34 34 34 34 34 31 27 25 24 23 22 22 21 21 20 13 16 23 24 19 11 8 11 12 11 12 13 17 17 18 19 19 19 19 20 22 24 26 25 25 25 23 24 28 31 32 35 39 41 40 40 38 36 34 33 34 34 31 31 27 15 4 2 3 4 3 7 18 21 15 13 17 35 42 35 33 34 29 24 24 29 31 32 30 18 11 13 14
36 36 36 36 36 32 29 27 26 25 24 23 23 22 20 19 24 25 22 22 21 22 26 26 27 28 29 30 28 26 27 27 26 26 28 30 32 33 32 32 32 32 32 31 31 30 25 30 38 35 30 30 31 29 27 29 30 30 31 27 22 19 12 6 4 4 8 14 11 10 11 12 23 29 30 32 34 34 37 40 38 32 23 16 13 15 16 16
39 39 39 39 38 35 32 31 30 29 27 26 26 24 26 33 34 30 28 28 27 27 30 31 32 34 36 36 34 33 31 29 29 29 31 33 34 35 35 36 34 33 32 28 26 26 21 28 39 34 27 29 30 28 25 25 26 29 29 26 28 33 29 19 15 18 16 10 8 12 15 26 41 48 50 50 48 46 41 33 23 17 17 18 18 17 17 19
43 43 43 43 42 37 34 35 35 33 30 29 28 31 40 44 39 34 33 31 27 25 26 27 29 32 33 32 30 29 27 25 24 24 26 29 30 32 34 35 32 31 32 30 27 23 19 28 38 35 30 30 30 29 26 23 23 23 24 27 31 35 33 25 19 23 18 8 14 22 26 39 47 51 55 47 38 32 22 17 17 19 22 19 15 15 17 17
48 48 48 48 44 37 35 37 36 34 32 30 33 40 49 50 45 44 41 39 38 34 30 29 29 27 25 24 26 25 20 20 20 21 22 23 24 27 30 30 29 30 30 30 31 28 26 33 40 42 41 40 38 36 30 28 28 26 25 28 29 26 26 23 11 8 10 8 13 23 31 37 31 33 45 40 34 34 27 25 29 25 19 13 11 12 11 12
50 49 50 49 43 36 33 34 34 34 31 31 38 46 49 49 48 48 45 43 43 39 34 32 30 29 26 27 31 30 25 23 22 20 22 22 22 22 24 24 25 27 28 29 33 33 31 31 35 41 44 39 35 35 34 33 33 33 34 35 30 21 18 19 10 4 8 7 7 15 26 33 31 38 50 48 47 49 38 30 26 20 15 12 9 8 8 18
45 45 46 46 42 35 30 28 30 31 31 35 42 46 48 49 49 47 46 46 43 38 36 36 34 32 32 33 35 34 31 29 25 21 21 20 20 19 19 20 21 22 23 26 30 32 31 26 24 34 40 35 30 32 36 37 34 35 36 36 36 31 23 21 17 10 8 8 8 11 14 20 33 47 52 50 49 45 35 25 18 15 15 15 17 19 23 33
39 40 40 40 38 34 28 24 27 30 35 40 44 45 47 48 47 46 45 45 43 39 38 39 37 35 37 39 38 37 36 34 32 29 27 25 26 26 25 24 25 25 23 23 25 28 30 28 25 33 40 39 36 37 38 36 32 32 35 34 36 36 30 23 20 19 15 8 5 7 8 15 31 43 48 49 43 35 29 24 21 22 23 27 34 40 42 45
35 36 36 34 32 31 26 24 27 32 37 41 43 44 45 45 45 45 44 44 43 40 39 40 39 38 39 39 39 38 36 34 35 34 34 34 34 33 29 25 24 26 27 30 31 30 33 34 32 33 37 41 44 43 39 31 24 25 27 28 31 32 28 17 12 23 29 20 13 11 9 14 26 38 49 52 44 37 35 33 34 38 41 45 48 48 50 51
34 34 33 30 29 28 26 26 28 31 36 40 40 41 42 42 42 42 42 45 44 42 40 40 41 42 41 40 41 40 37 38 39 38 38 40 38 35 33 30 28 29 31 34 33 32 32 31 28 30 36 42 43 42 39 32 29 28 25 26 26 26 27 19 12 21 29 26 24 21 14 14 26 39 48 51 48 44 43 44 47 50 50 51 52 51 52 52
33 32 30 29 28 27 25 26 28 30 35 37 37 38 38 39 41 40 41 43 43 40 39 40 40 41 41 41 40 40 39 40 41 41 40 42 42 40 38 36 35 35 35 33 30 29 26 20 21 28 32 37 39 40 41 38 36 36 35 34 33 32 35 33 30 30 25 19 21 17 8 11 24 36 41 44 46 47 48 51 51 50 49 49 51 53 54 53
30 28 26 26 27 26 27 29 30 32 34 35 35 36 36 37 39 38 39 41 39 37 37 37 38 37 39 39 39 40 39 36 36 38 36 34 34 33 32 32 33 33 32 29 28 29 24 17 19 20 15 16 21 25 29 31 30 30 30 31 30 33 35 35 39 38 24 22 27 17 8 16 27 35 41 44 49 55 57 54 48 47 49 51 51 52 52 53
27 26 24 24 25 27 29 31 32 33 33 34 35 35 35 37 38 38 38 39 38 37 38 38 38 38 38 38 38 39 38 36 35 33 31 30 30 29 30 31 30 30 30 31 32 34 34 33 32 23 10 8 11 12 17 22 24 23 22 24 26 30 30 30 36 33 19 24 34 24 20 33 39 40 45 49 51 53 53 50 49 50 51 52 51 50 50 51
27 26 25 23 23 26 29 30 31 33 34 34 35 35 36 38 39 37 37 38 38 37 38 40 40 40 40 38 38 38 38 39 37 33 33 35 34 33 32 31 30 32 33 35 36 37 37 37 37 32 26 23 25 27 30 33 35 34 33 34 35 35 35 34 34 31 26 30 35 33 34 40 40 39 41 40 39 40 44 48 52 54 53 53 52 52 52 53
27 27 25 22 20 22 26 27 30 34 35 34 34 35 37 38 37 36 36 37 37 37 38 40 40 39 39 38 37 36 36 38 38 37 37 37 38 39 38 36 36 38 37 36 35 35 33 32 34 36 37 36 39 42 41 39 38 37 37 40 42 42 44 43 40 40 40 32 27 34 41 41 39 38 37 37 39 41 45 49 52 55 57 58 58 57 58 58
27 27 26 25 24 24 25 27 29 32 34 35 37 38 39 39 39 37 35 33 34 34 34 35 35 36 37 37 37 37 38 38 38 38 38 38 39 40 40 40 38 37 37 36 34 34 32 33 38 39 37 36 36 38 39 37 34 32 31 34 38 40 41 44 45 45 45 38 35 42 49 49 48 45 44 47 49 49 51 54 56 58 60 62 64 64 64 63
28 28 27 27 29 30 30 30 31 31 32 34 38 39 39 41 42 40 37 35 34 35 33 32 32 33 34 33 32 32 32 32 32 32 32 33 33 34 37 39 37 34 34 33 30 27 25 28 31 31 31 32 32 33 38 40 38 37 36 35 37 40 42 45 47 46 47 48 49 50 49 50 49 47 49 51 50 51 53 55 57 59 61 63 65 66 65 64
28 29 29 30 31 32 31 32 32 33 33 33 37 38 38 40 42 41 40 39 39 39 39 37 37 37 37 34 32 31 30 29 30 30 30 32 34 35 37 37 36 34 31 30 29 28 27 29 31 31 34 38 41 44 45 43 41 39 40 40 43 47 50 51 51 51 52 53 51 47 45 44 43 43 45 45 43 45 47 49 53 55 57 59 61 63 64 63
28 29 30 31 32 31 32 33 32 33 35 34 37 37 37 39 41 41 42 42 41 41 41 39 40 40 40 40 40 40 39 38 37 37 37 39 40 37 33 32 33 34 33 34 36 37 37 36 37 37 33 36 44 47 45 44 41 37 39 43 47 50 49 48 47 47 46 46 45 44 41 38 37 39 41 41 40 40 40 41 44 46 47 50 52 54 55 55
28 29 29 31 32 32 33 34 33 34 36 36 36 37 36 38 39 39 39 38 38 39 39 39 39 39 39 40 40 41 41 40 39 39 39 40 40 38 37 38 39 41 43 44 45 49 48 42 41 38 30 33 42 43 39 36 28 28 39 45 43 42 41 40 41 40 40 41 41 40 38 37 36 35 35 35 35 34 33 33 36 39 42 43 43 45 46 47
Wind_Direction
264 265 266 268 269 271 271 273 274 275 277 278 278 279 280 280 280 278 277 276 274 274 275 275 275 275 275 275 275 275 275 276 277 279 280 278 278 281 282 283 284 285 285 285 286 287 287 286 286 286 287 289 290 290 291 292 293 292 291 288 287 290 295 301 301 297 295 294 289 288 291 292 294 296 295 293 293 295 294 296 298 299 304 306 304 300 293 289
265 266 267 269 270 271 272 274 275 276 278 279 280 281 282 282 283 284 284 283 281 280 279 277 277 278 278 278 277 276 275 276 277 278 278 278 279 281 282 283 283 284 284 284 285 285 285 284 284 284 285 288 289 290 290 291 291 289 288 285 285 291 296 296 294 294 295 294 291 291 293 293 297 300 296 293 296 297 295 301 305 303 305 305 301 296 290 286
265 266 268 270 271 272 273 274 275 276 277 277 278 279 279 281 282 283 285 286 286 286 285 283 282 281 281 280 280 280 278 277 278 279 278 279 280 281 282 282 282 282 282 283 283 283 283 282 281 282 283 284 286 288 287 288 288 286 282 281 286 293 291 288 291 292 291 290 289 291 293 292 297 298 293 294 296 295 298 308 307 303 305 304 298 292 287 282
266 267 268 269 271 272 274 275 276 276 277 277 277 278 278 279 280 281 283 284 285 286 286 287 286 285 284 282 282 282 281 281 281 280 281 281 280 280 281 282 282 281 281 282 284 284 284 283 282 282 283 284 286 287 287 287 285 282 280 282 289 291 286 287 290 289 286 285 286 288 290 292 294 292 291 294 294 293 302 310 305 305 308 302 296 290 286 284
268 269 269 269 270 271 272 274 275 276 276 277 278 278 279 279 279 280 281 282 283 284 284 285 285 285 284 283 284 283 285 286 284 282 282 284 283 283 283 283 283 282 281 283 286 286 285 284 284 284 284 285 286 287 288 287 283 281 282 284 288 289 287 288 290 287 284 282 283 286 288 291 291 290 290 290 289 294 305 308 304 308 309 301 299 296 292 289
270 270 270 270 271 271 273 273 274 276 276 277 278 278 279 279 280 280 280 281 281 282 282 282 283 283 282 281 281 282 281 281 284 285 283 282 282 282 283 283 282 281 281 284 285 284 284 283 282 283 284 285 285 286 288 286 283 281 283 286 288 289 286 287 289 286 283 282 284 287 287 288 289 290 290 286 286 294 302 303 303 306 304 300 301 301 298 293
270 271 271 272 272 273 274 275 276 277 278 278 279 280 280 280 281 281 281 282 282 282 282 282 283 282 281 280 278 277 274 275 283 285 282 282 281 281 281 280 279 278 279 282 283 283 282 280 281 283 283 283 284 285 285 284 283 282 285 289 291 289 286 287 287 285 285 285 287 288 287 288 290 291 287 283 286 293 298 298 299 301 298 297 300 301 299 295
270 270 271 272 273 274 274 275 276 277 278 279 280 281 281 282 282 282 283 283 284 284 283 283 282 282 282 280 279 275 271 277 285 281 280 282 281 282 282 281 278 277 278 280 281 281 280 281 283 283 281 281 282 283 284 284 283 284 288 291 290 288 288 288 286 285 286 288 289 288 286 289 291 291 285 282 287 294 297 296 295 293 291 293 297 299 299 296
269 270 271 272 272 273 274 274 275 276 277 278 279 280 280 281 281 282 283 283 284 284 285 284 283 283 282 281 281 275 273 283 284 277 278 279 281 283 282 281 278 277 278 278 278 278 279 281 280 279 278 279 280 283 285 285 285 287 290 289 288 287 288 289 287 286 287 288 290 287 287 289 290 288 282 281 290 297 296 291 289 288 286 289 292 293 295 293
269 270 270 271 272 272 273 273 274 274 275 276 277 278 278 279 279 280 280 281 282 282 283 283 283 284 282 282 280 274 279 288 280 276 277 277 279 281 280 279 278 278 277 276 277 278 278 277 276 276 276 277 279 282 283 284 286 288 288 286 286 287 287 287 287 287 288 289 290 288 289 289 287 284 280 284 297 299 293 287 285 285 285 287 288 289 290 288
269 270 270 271 271 272 272 273 273 274 275 275 276 276 277 277 278 278 279 279 280 281 281 282 282 282 282 281 275 276 286 285 278 277 277 277 279 278 278 277 277 277 276 275 275 276 276 275 275 276 275 276 278 281 283 284 286 286 285 285 285 286 285 286 287 289 291 292 293 291 290 287 284 281 280 289 298 295 289 285 284 284 284 284 285 285 285 284
269 270 270 271 271 272 272 273 273 274 274 275 275 275 276 276 277 277 278 279 279 279 280 281 281 281 280 276 273 281 287 281 278 278 278 280 280 276 275 274 275 275 275 275 274 274 275 275 276 275 275 276 279 282 283 284 284 283 284 284 285 284 284 285 287 290 293 294 295 294 290 286 283 280 283 291 295 292 289 285 282 282 283 283 282 281 281 281
270 271 271 271 272 272 273 273 274 274 275 275 275 275 275 275 276 276 277 277 277 277 277 278 278 279 277 274 276 282 281 278 279 281 284 285 280 275 273 273 273 272 273 273 273 274 275 275 275 274 275 277 280 282 283 283 281 281 282 282 285 284 283 287 291 294 296 296 297 295 289 286 285 283 286 292 294 292 289 285 283 281 281 281 280 278 277 277
271 272 272 273 273 274 274 275 276 276 276 276 276 277 276 277 277 277 277 277 277 277 277 277 277 277 275 274 278 279 277 279 281 284 288 285 280 277 275 274 273 272 272 272 273 273 274 275 275 274 275 277 281 282 282 280 277 279 281 280 282 281 283 291 296 298 299 296 296 295 287 287 290 288 288 293 294 293 290 288 286 283 281 279 278 277 276 274
272 272 273 273 274 275 276 277 278 278 278 278 279 279 279 279 279 280 280 280 280 280 279 279 279 279 277 277 278 278 280 282 283 284 283 281 280 279 277 276 274 273 273 273 273 273 274 274 274 275 275 277 281 282 281 277 274 278 278 277 280 281 286 295 295 295 295 291 292 292 288 290 293 292 291 293 294 293 291 290 289 285 282 280 279 278 276 275
272 272 273 273 274 275 276 277 278 279 280 280 280 280 280 280 281 281 281 282 282 282 282 281 281 280 279 281 281 281 283 283 282 281 277 277 278 277 276 275 274 274 273 274 274 274 274 274 274 274 275 276 279 279 278 273 272 275 274 276 282 284 290 296 292 288 289 289 291 291 290 291 292 294 295 293 293 294 292 291 289 284 282 282 281 280 279 278
272 273 273 273 274 274 275 276 278 279 279 280 280 281 281 281 281 280 280 281 281 281 281 281 281 280 280 283 284 283 284 282 281 280 278 276 274 273 273 273 274 274 274 274 274 274 274 274 275 274 275 277 277 273 268 266 271 277 280 282 286 289 291 293 293 290 290 291 293 292 290 290 292 295 296 294 292 292 291 290 288 284 283 283 284 284 284 282
274 274 274 274 274 275 276 276 278 279 279 280 280 280 281 281 281 280 280 279 279 280 280 279 280 280 281 283 284 283 281 280 280 280 279 278 276 274 273 273 274 274 273 273 274 274 274 275 275 272 272 272 271 265 259 267 281 287 289 288 289 290 288 290 293 293 294 293 292 291 290 290 293 295 295 295 293 288 287 288 289 288 288 288 289 289 289 287
274 275 275 275 275 276 277 278 279 279 281 282 283 284 284 283 283 282 281 280 279 279 279 280 279 278 279 281 283 282 280 279 280 280 280 278 275 274 274 273 273 272 272 273 274 274 274 274 269 266 269 272 274 273 272 284 293 291 289 287 287 287 286 288 291 294 298 294 290 289 290 291 293 294 294 293 291 287 285 287 290 291 293 293 294 294 292 290
273 274 275 276 277 278 279 280 281 282 282 283 285 286 286 285 284 283 280 279 279 279 278 279 279 278 279 282 283 282 281 278 277 278 277 274 273 273 273 272 271 270 270 272 273 274 275 271 266 267 273 279 282 284 286 290 290 286 285 284 284 284 285 288 291 297 301 292 289 291 292 292 293 294 293 290 289 287 286 289 291 292 294 296 296 294 293 291
271 273 275 275 277 278 279 280 281 283 284 284 285 286 287 288 288 287 283 279 277 279 278 278 279 278 280 283 283 281 280 277 275 274 272 272 272 271 270 269 269 270 271 272 272 274 272 267 267 274 282 286 286 285 285 284 283 283 283 283 283 282 285 291 294 298 299 291 290 295 295 292 292 292 291 289 288 287 288 289 289 291 294 295 296 295 295 294
270 271 272 273 275 276 277 278 279 281 284 286 287 288 289 291 292 292 290 286 280 278 280 280 280 280 282 284 282 280 278 275 274 273 271 270 268 266 268 268 268 270 271 270 270 271 268 266 272 282 287 287 284 282 280 281 281 281 281 281 280 282 289 293 295 299 299 293 293 299 296 291 291 291 291 291 289 289 290 288 288 293 295 296 298 299 298 297
268 269 270 272 275 276 277 278 279 281 284 287 289 290 291 292 293 293 293 292 288 283 282 283 282 283 285 283 279 277 275 275 273 269 266 263 261 261 263 265 266 268 268 267 268 268 266 270 279 286 285 283 280 279 280 282 281 280 279 278 279 286 290 289 294 301 299 295 296 300 296 291 294 295 293 292 291 293 295 293 294 294 296 300 302 303 301 301
269 269 270 272 274 277 280 281 283 285 288 291 293 294 295 295 297 297 297 297 294 291 289 288 286 287 287 282 278 273 270 271 269 266 261 257 256 257 258 260 263 265 266 268 270 270 270 275 282 283 280 279 278 278 279 281 282 281 279 278 282 290 291 288 294 299 296 295 296 301 299 296 300 303 295 297 299 300 301 300 301 301 304 306 307 312 315 316
271 271 271 273 275 279 283 285 288 290 292 296 297 299 300 300 302 302 302 302 299 299 299 294 290 290 289 282 273 268 265 266 266 266 262 257 255 256 256 258 261 265 268 271 273 274 274 277 280 279 278 278 278 279 280 280 281 280 280 283 290 295 294 292 296 297 295 296 296 305 308 300 299 294 293 300 303 303 305 304 307 312 315 311 311 326 325 325
273 273 274 276 279 281 283 286 289 291 293 296 298 300 300 301 304 304 307 306 302 304 307 304 293 287 291 286 270 265 266 268 270 267 263 259 257 256 257 258 261 265 269 272 273 273 275 279 279 278 279 279 276 277 282 281 277 277 283 293 296 295 293 294 297 295 290 291 292 294 295 291 294 295 298 304 307 307 309 312 316 322 327 156 332 329 321 324
274 275 276 279 281 282 283 285 287 288 292 295 296 297 298 301 302 305 313 311 305 310 321 356 343 267 301 305 291 283 275 274 279 272 266 264 260 259 259 260 263 265 267 269 268 269 276 281 280 281 281 278 275 280 289 286 275 278 289 296 293 293 294 294 295 288 284 289 289 285 269 276 288 293 302 305 305 311 319 321 325 10 143 283 329 328 320 324
275 276 278 279 280 281 283 285 286 287 291 293 293 294 295 298 299 304 316 313 300 317 323 315 309 290 299 298 286 285 280 278 277 269 268 271 270 268 264 263 264 264 266 266 264 269 277 281 282 281 278 279 283 289 293 288 279 282 290 291 288 290 289 288 289 286 289 293 289 281 267 257 279 289 298 302 303 326 342 339 120 139 121 326 324 323 322 324
275 276 277 278 279 282 284 284 285 286 290 292 293 293 292 294 297 301 306 267 278 306 296 283 287 286 289 284 270 269 271 271 269 266 268 270 271 273 270 269 270 269 270 269 269 274 280 282 283 280 278 283 290 293 292 287 282 283 287 287 285 284 282 283 285 284 288 286 271 252 250 250 283 290 292 295 312 352 6 64 142 146 331 326 318 315 318 322
272 274 276 278 281 283 283 285 286 287 290 291 291 292 291 293 296 297 271 247 278 298 292 287 286 281 279 271 260 258 258 260 263 266 269 269 269 270 269 270 272 273 274 273 274 278 282 282 280 279 283 288 290 292 290 287 283 282 282 283 282 281 280 279 275 277 286 275 264 261 260 251 274 291 294 243 351 53 70 149 176 277 311 313 310 313 316 319
272 274 277 279 281 282 283 286 286 286 288 289 290 291 292 292 289 269 230 264 287 294 290 290 286 275 266 257 251 251 252 255 259 262 266 268 268 267 268 270 271 274 276 275 276 279 279 278 279 282 286 288 288 287 284 283 281 279 277 275 278 283 284 276 260 257 236 267 275 276 266 240 238 261 313 155 228 337 306 276 267 287 300 302 308 313 316 320
275 276 277 279 280 282 284 286 286 286 286 287 290 291 292 293 272 243 244 269 293 296 289 299 298 281 260 250 248 248 249 251 254 258 263 267 268 267 268 270 272 275 276 275 276 277 274 273 277 281 281 281 281 279 277 276 274 273 268 262 263 288 297 271 225 212 204 252 273 275 236 228 246 259 265 263 277 293 292 284 281 290 299 303 309 314 317 322
276 277 278 278 278 280 282 284 284 284 284 285 286 286 287 283 260 252 252 258 260 262 275 284 284 281 273 265 257 251 252 253 255 259 267 271 271 270 269 271 273 273 274 277 279 280 277 275 275 276 276 275 274 271 272 274 273 270 265 254 234 202 283 257 240 265 247 256 266 256 230 242 261 270 275 277 286 293 291 291 296 298 301 304 311 316 308 304
275 277 277 277 277 278 280 281 281 280 281 279 278 279 271 254 255 262 262 260 260 266 274 277 279 280 278 275 272 269 267 266 266 267 270 273 273 273 272 271 273 274 276 278 278 278 278 277 277 276 274 274 273 271 274 276 274 272 270 260 240 232 237 238 231 241 266 275 266 224 213 246 268 276 282 285 288 289 291 296 299 299 302 310 314 309 302 289
276 276 276 276 276 277 279 279 278 277 274 273 272 265 254 252 258 264 267 270 270 273 277 281 283 282 280 278 277 277 274 271 269 268 268 270 270 271 271 270 269 269 270 268 269 273 270 272 278 280 276 275 275 274 273 269 265 265 262 249 240 246 250 250 250 253 266 290 262 227 235 260 270 276 279 283 285 288 293 295 292 296 305 313 312 305 299 287
277 278 277 276 276 277 277 276 274 271 269 267 260 251 252 258 263 265 269 274 274 275 280 283 282 280 281 282 283 282 278 271 269 267 266 267 267 267 269 269 268 266 263 260 262 267 267 269 275 278 278 277 276 275 270 260 255 254 247 242 249 257 255 252 258 259 260 272 258 252 259 267 274 280 280 283 288 293 295 283 282 299 306 311 313 302 301 299
277 278 278 278 278 276 273 270 268 264 261 256 247 250 259 264 266 266 268 272 272 273 276 276 275 273 275 280 281 281 279 274 272 269 266 267 266 266 267 266 265 264 263 263 265 265 264 268 272 273 276 275 273 273 267 256 252 248 246 255 263 262 254 250 257 263 247 251 254 248 258 269 273 277 277 280 287 288 288 286 292 300 301 309 311 297 305 320
275 276 277 278 278 274 269 264 262 257 251 246 245 252 260 264 266 267 267 268 269 269 268 265 266 268 267 270 274 276 278 278 276 271 269 268 264 266 270 267 265 266 266 265 266 265 262 266 269 269 272 273 271 269 265 257 252 250 252 257 256 253 249 239 227 242 245 249 254 234 247 261 262 265 272 276 280 284 290 296 297 293 289 294 291 270 285 306
273 273 273 273 274 273 268 261 257 249 240 238 242 249 258 263 265 266 265 265 264 263 261 260 261 264 265 267 272 274 275 275 274 271 269 263 256 261 268 269 272 277 275 265 260 260 258 258 261 264 268 273 270 265 263 261 259 253 249 247 247 250 251 240 230 236 244 248 259 240 235 249 255 262 270 275 279 284 291 296 290 276 274 277 280 283 287 294
271 271 271 270 271 272 268 260 250 240 235 239 244 251 259 263 266 268 267 264 262 259 259 261 261 262 265 268 270 272 272 272 271 268 264 260 260 265 268 272 275 275 272 264 259 262 262 255 255 262 266 267 266 265 268 269 265 257 249 244 245 247 248 249 245 243 249 261 266 252 242 243 252 262 269 272 276 281 287 290 283 276 279 285 292 297 297 296
271 270 270 270 270 270 267 254 244 241 240 244 249 254 258 260 264 267 266 263 262 260 260 262 262 263 265 267 268 270 271 271 270 268 265 265 266 268 269 273 273 268 266 267 266 267 265 257 252 254 257 258 261 265 267 268 264 261 256 251 251 249 247 255 258 248 249 249 246 254 260 244 245 257 265 267 269 276 282 286 287 288 293 298 300 299 296 295
270 270 270 270 268 268 264 253 249 249 245 247 254 258 258 260 263 266 266 265 263 261 261 263 263 264 265 266 268 269 269 269 269 267 268 268 268 268 270 272 270 266 264 265 265 262 261 258 250 246 248 253 259 261 259 262 267 266 259 252 251 248 243 240 241 250 250 248 250 258 265 254 249 254 262 267 271 276 284 291 295 297 299 299 298 295 292 291
269 269 269 268 266 264 259 252 250 247 245 251 260 261 259 260 262 264 265 265 263 263 263 263 263 265 266 267 269 270 269 269 269 269 270 272 273 273 272 272 270 268 266 266 267 267 265 260 258 258 257 257 261 262 261 263 266 264 261 259 255 252 251 250 253 260 264 262 262 264 264 261 262 264 267 273 276 282 291 297 298 297 297 296 294 292 291 291
271 271 268 264 262 257 249 249 252 250 249 255 258 258 258 258 259 262 264 263 264 265 265 265 265 266 266 267 268 268 267 269 272 273 273 273 272 270 268 270 269 269 269 269 270 274 273 269 271 275 275 268 266 267 267 267 268 267 269 271 270 269 271 270 267 267 267 262 260 259 255 262 269 275 278 282 285 289 295 297 294 293 293 292 290 289 289 289
274 272 268 262 259 253 249 252 255 255 256 258 256 256 257 256 258 262 263 263 263 264 265 267 267 268 269 268 266 266 266 266 269 271 270 269 270 271 271 273 272 270 270 270 272 275 276 274 274 273 268 266 269 268 272 280 285 284 281 283 285 285 284 280 271 265 261 261 257 252 262 271 274 280 283 286 289 290 291 291 290 290 290 287 287 287 288 289
273 272 270 265 259 257 257 254 249 248 254 257 256 257 259 260 263 263 262 263 263 263 265 266 267 269 270 269 268 268 268 266 266 269 271 272 275 276 274 273 272 272 273 275 276 275 273 272 271 268 263 267 276 280 283 286 287 286 286 285 285 283 282 281 272 261 262 268 262 257 268 276 279 283 286 285 284 284 283 284 285 287 286 286 287 287 288 290
271 270 269 265 258 257 258 253 243 241 246 248 250 253 257 261 264 264 263 265 265 266 267 267 268 269 269 269 270 271 271 269 267 269 272 273 273 272 271 271 273 275 276 276 274 272 273 274 273 274 274 276 281 283 284 283 281 283 285 284 282 280 280 279 272 267 271 272 267 269 275 277 278 281 282 280 278 277 277 279 281 283 284 285 286 286 287 288
268 267 265 262 258 256 254 251 247 244 244 244 244 249 254 256 257 258 260 263 264 265 267 268 268 267 267 268 270 272 274 273 271 273 273 274 274 273 273 274 277 278 278 276 273 272 275 276 275 277 279 278 277 276 276 277 280 286 290 289 286 284 282 279 276 277 277 273 272 277 277 275 276 278 277 278 278 277 276 277 279 281 282 283 283 285 286 286
266 266 264 261 260 261 258 256 256 253 251 246 244 249 257 257 257 258 257 258 259 259 261 264 266 268 270 272 273 273 272 270 271 274 274 274 276 278 278 278 279 279 277 275 272 270 274 276 274 277 283 281 275 273 279 285 289 291 292 291 289 286 284 282 282 284 284 280 281 284 282 281 282 282 282 281 279 276 276 278 279 279 280 281 281 282 283 285
266 265 264 263 263 264 264 262 260 258 258 253 249 253 257 257 259 261 259 257 258 259 260 262 263 264 266 267 266 263 263 265 268 271 273 274 276 278 278 278 278 276 273 271 269 269 276 281 279 284 290 288 284 283 286 289 290 290 289 288 286 284 282 282 284 286 285 284 285 286 285 284 283 282 282 280 278 277 276 275 276 277 278 279 280 281 283 284
268 266 266 265 265 265 264 263 261 259 261 260 257 258 258 256 257 260 260 260 261 261 262 263 264 266 265 265 264 264 266 269 270 271 272 273 273 271 269 267 269 272 271 270 274 279 284 285 287 290 289 286 287 288 287 289 290 287 283 282 282 281 281 282 285 286 284 281 282 283 281 279 275 274 274 274 275 277 274 272 273 274 276 278 279 280 282 282
268 266 266 264 265 264 263 263 261 259 261 263 261 260 259 259 259 260 262 264 264 264 264 264 266 268 268 268 269 269 270 269 268 267 267 267 267 267 268 269 271 274 276 277 281 285 287 287 289 289 283 279 285 287 287 292 293 282 280 282 283 282 282 282 283 282 278 275 275 276 276 275 274 271 269 269 271 274 274 276 277 277 278 278 278 279 280 281
Height
3185 3185 3185 3185 3185 3185 3185 3185 3184 3184 3184 3184 3184 3183 3183 3183 3183 3183 3183 3182 3182 3182 3182 3181 3181 3181 3180 3180 3180 3180 3179 3179 3179 3179 3178 3178 3177 3177 3177 3176 3176 3176 3175 3175 3174 3174 3174 3174 3173 3173 3173 3172 3172 3171 3171 3170 3170 3169 3168 3167 3166 3166 3166 3166 3165 3164 3163 3162 3162 3161 3161 3159 3158 3159 3157 3155 3155 3155 3155 3155 3155 3154 3154 3154 3153 3152 3151 3150
3184 3184 3184 3184 3184 3184 3184 3183 3183 3183 3183 3183 3182 3182 3182 3182 3182 3182 3181 3181 3181 3181 3181 3180 3180 3180 3179 3179 3179 3178 3178 3178 3178 3178 3177 3177 3176 3176 3176 3175 3175 3174 3174 3174 3173 3173 3173 3172 3172 3171 3171 3171 3170 3170 3169 3169 3168 3167 3166 3164 3164 3165 3164 3164 3164 3163 3162 3161 3160 3159 3159 3157 3157 3157 3155 3153 3153 3153 3153 3154 3154 3153 3153 3152 3151 3149 3148 3148
3183 3183 3183 3183 3183 3183 3182 3182 3182 3182 3182 3181 3181 3181 3181 3181 3181 3180 3180 3180 3180 3180 3179 3179 3179 3179 3178 3178 3177 3177 3177 3176 3177 3176 3176 3176 3175 3175 3174 3174 3174 3173 3173 3172 3171 3171 3171 3170 3170 3170 3169 3169 3168 3168 3167 3167 3166 3165 3164 3162 3162 3164 3162 3162 3162 3162 3161 3159 3157 3157 3157 3156 3156 3155 3152 3151 3150 3150 3151 3153 3152 3151 3151 3150 3148 3146 3145 3145
3182 3182 3182 3182 3182 3181 3181 3181 3181 3180 3180 3180 3180 3179 3179 3179 3179 3179 3179 3179 3178 3178 3178 3178 3177 3177 3177 3176 3176 3176 3175 3175 3175 3175 3174 3174 3174 3173 3173 3172 3172 3172 3171 3170 3170 3170 3169 3169 3168 3168 3168 3167 3166 3166 3165 3166 3165 3163 3161 3160 3161 3162 3160 3160 3161 3160 3159 3157 3155 3155 3154 3153 3154 3152 3150 3149 3147 3147 3150 3151 3150 3149 3148 3147 3145 3144 3143 3142
3180 3180 3180 3180 3180 3180 3180 3180 3179 3179 3179 3178 3178 3178 3178 3177 3177 3177 3177 3177 3177 3177 3176 3176 3175 3175 3175 3175 3174 3174 3174 3173 3173 3173 3173 3172 3172 3172 3171 3171 3171 3170 3170 3169 3169 3168 3167 3167 3166 3166 3165 3165 3164 3163 3163 3163 3162 3160 3158 3158 3159 3159 3157 3157 3158 3158 3156 3155 3154 3153 3152 3151 3151 3149 3148 3147 3145 3145 3149 3149 3147 3147 3145 3144 3143 3142 3141 3140
3179 3179 3179 3178 3178 3178 3178 3178 3178 3177 3177 3177 3176 3176 3176 3176 3176 3175 3175 3175 3175 3175 3174 3174 3174 3173 3173 3173 3173 3172 3172 3171 3172 3172 3171 3171 3171 3170 3170 3170 3169 3168 3168 3167 3167 3166 3166 3165 3164 3164 3163 3162 3162 3161 3161 3161 3159 3157 3155 3156 3157 3156 3154 3155 3156 3154 3154 3153 3152 3152 3150 3149 3148 3147 3145 3143 3143 3145 3147 3147 3145 3145 3143 3142 3141 3140 3139 3139
3177 3177 3177 3177 3176 3176 3176 3176 3176 3176 3175 3175 3175 3174 3174 3174 3174 3174 3173 3173 3173 3173 3172 3172 3172 3171 3171 3171 3171 3170 3169 3170 3172 3170 3169 3169 3169 3169 3168 3168 3167 3166 3166 3165 3165 3164 3163 3163 3163 3162 3161 3160 3159 3159 3158 3157 3157 3154 3153 3154 3154 3153 3152 3153 3153 3151 3150 3150 3150 3149 3148 3148 3146 3144 3141 3138 3142 3145 3145 3144 3143 3143 3141 3140 3139 3138 3137 3137
3175 3175 3175 3175 3174 3174 3174 3174 3174 3174 3173 3173 3173 3172 3172 3172 3171 3171 3171 3171 3171 3170 3170 3170 3169 3169 3169 3168 3168 3167 3166 3168 3170 3168 3167 3167 3166 3167 3166 3166 3165 3164 3164 3163 3162 3162 3161 3161 3161 3160 3158 3158 3157 3156 3156 3155 3153 3152 3151 3152 3151 3150 3149 3150 3149 3148 3147 3147 3147 3145 3145 3145 3145 3141 3134 3134 3141 3143 3143 3142 3141 3140 3139 3138 3138 3137 3136 3135
3172 3172 3172 3172 3172 3172 3172 3172 3172 3171 3171 3171 3170 3170 3170 3169 3169 3169 3169 3168 3168 3168 3168 3167 3167 3167 3166 3166 3166 3163 3164 3167 3167 3166 3165 3164 3164 3165 3164 3164 3163 3162 3162 3161 3160 3159 3159 3159 3158 3157 3155 3155 3154 3153 3153 3152 3150 3150 3149 3149 3148 3147 3146 3146 3145 3145 3144 3144 3144 3140 3141 3143 3143 3138 3127 3130 3140 3141 3141 3139 3137 3137 3136 3136 3136 3135 3134 3133
3170 3170 3170 3170 3170 3169 3169 3169 3169 3169 3169 3168 3168 3167 3167 3166 3166 3166 3166 3166 3166 3165 3165 3164 3164 3164 3164 3164 3163 3160 3162 3166 3164 3163 3163 3162 3163 3162 3162 3161 3160 3160 3159 3158 3158 3157 3156 3156 3155 3154 3153 3152 3152 3152 3151 3149 3148 3147 3146 3144 3145 3144 3143 3143 3142 3142 3141 3141 3141 3136 3136 3139 3139 3134 3123 3129 3139 3138 3137 3136 3134 3134 3133 3133 3132 3132 3131 3130
3167 3167 3167 3167 3167 3167 3167 3167 3166 3166 3166 3166 3165 3164 3164 3163 3163 3163 3163 3163 3163 3162 3162 3161 3161 3161 3161 3161 3159 3158 3161 3163 3161 3161 3160 3160 3161 3160 3159 3158 3157 3157 3156 3156 3155 3154 3153 3153 3152 3151 3150 3150 3150 3150 3148 3147 3145 3144 3142 3140 3142 3141 3140 3140 3139 3139 3138 3137 3137 3133 3130 3133 3135 3129 3123 3129 3134 3133 3132 3132 3131 3130 3129 3130 3129 3128 3128 3127
3165 3165 3164 3164 3164 3164 3164 3164 3164 3163 3163 3163 3162 3162 3161 3160 3160 3160 3160 3160 3160 3159 3159 3158 3158 3158 3158 3157 3156 3157 3159 3159 3158 3158 3158 3158 3158 3157 3156 3155 3155 3154 3153 3153 3152 3151 3150 3150 3149 3148 3148 3147 3148 3148 3146 3145 3143 3141 3139 3136 3138 3138 3136 3137 3137 3136 3135 3133 3133 3130 3122 3124 3129 3126 3124 3129 3129 3128 3127 3127 3128 3127 3126 3126 3125 3124 3124 3124
3162 3162 3162 3162 3161 3161 3161 3161 3161 3161 3160 3160 3159 3159 3158 3158 3157 3157 3157 3156 3156 3156 3156 3155 3154 3154 3154 3153 3155 3156 3156 3156 3155 3155 3155 3156 3155 3154 3153 3153 3152 3151 3150 3149 3149 3148 3147 3146 3145 3145 3146 3145 3146 3146 3143 3142 3139 3138 3137 3133 3133 3133 3132 3134 3135 3133 3133 3129 3128 3127 3116 3114 3123 3124 3124 3126 3124 3123 3122 3122 3123 3122 3122 3121 3121 3120 3119 3120
3159 3159 3159 3159 3159 3159 3158 3158 3158 3158 3157 3156 3156 3156 3155 3155 3154 3154 3154 3153 3153 3153 3152 3152 3151 3151 3149 3150 3153 3153 3152 3153 3153 3153 3153 3152 3151 3151 3150 3149 3148 3147 3146 3146 3145 3145 3144 3143 3142 3141 3143 3143 3144 3143 3140 3138 3135 3136 3134 3131 3130 3127 3127 3132 3133 3130 3129 3126 3123 3122 3111 3106 3116 3121 3122 3122 3119 3118 3117 3117 3118 3118 3117 3116 3116 3115 3114 3115
3156 3156 3156 3156 3156 3156 3156 3156 3155 3155 3154 3153 3153 3153 3152 3152 3151 3151 3150 3150 3150 3149 3149 3148 3148 3147 3144 3146 3150 3149 3149 3150 3150 3150 3149 3148 3148 3148 3147 3146 3145 3144 3143 3143 3142 3142 3141 3140 3138 3139 3140 3142 3143 3140 3137 3132 3132 3135 3131 3127 3128 3124 3122 3128 3132 3129 3126 3122 3119 3117 3107 3102 3110 3115 3119 3118 3114 3113 3111 3111 3113 3112 3112 3111 3111 3111 3109 3110
3153 3153 3153 3152 3153 3153 3153 3153 3152 3152 3151 3150 3150 3149 3149 3149 3148 3148 3147 3147 3146 3146 3145 3144 3144 3143 3140 3143 3146 3146 3147 3147 3146 3146 3146 3146 3145 3144 3143 3142 3141 3141 3140 3140 3139 3139 3138 3136 3135 3136 3137 3139 3140 3137 3132 3128 3129 3132 3128 3123 3125 3123 3120 3122 3126 3128 3124 3118 3115 3113 3104 3099 3104 3109 3114 3115 3111 3108 3105 3105 3107 3107 3106 3106 3106 3105 3105 3105
3150 3150 3149 3149 3149 3150 3150 3149 3149 3149 3148 3147 3147 3146 3146 3145 3145 3144 3144 3144 3143 3142 3142 3141 3141 3139 3137 3139 3142 3143 3144 3142 3142 3143 3142 3143 3142 3141 3140 3138 3138 3138 3137 3137 3137 3136 3134 3133 3133 3133 3135 3136 3137 3134 3129 3125 3125 3127 3126 3122 3120 3121 3119 3117 3120 3124 3122 3115 3111 3108 3100 3095 3100 3104 3107 3110 3109 3104 3099 3098 3100 3101 3101 3101 3101 3101 3101 3100
3147 3147 3146 3146 3146 3146 3146 3146 3146 3146 3145 3144 3143 3143 3142 3141 3141 3141 3141 3140 3139 3139 3137 3137 3138 3135 3134 3136 3138 3140 3140 3139 3139 3140 3140 3140 3138 3137 3136 3135 3135 3134 3134 3134 3133 3133 3131 3130 3129 3129 3132 3133 3132 3130 3125 3123 3124 3123 3124 3121 3118 3118 3117 3115 3116 3119 3119 3111 3107 3103 3094 3091 3095 3099 3101 3104 3105 3101 3096 3095 3094 3095 3096 3096 3096 3096 3096 3095
3144 3144 3143 3143 3143 3143 3143 3143 3142 3142 3142 3141 3140 3140 3139 3138 3137 3136 3136 3136 3136 3136 3134 3133 3134 3132 3131 3134 3135 3135 3136 3136 3136 3136 3137 3136 3135 3133 3132 3132 3131 3130 3130 3131 3130 3129 3128 3126 3124 3125 3127 3128 3127 3125 3123 3122 3123 3121 3120 3119 3116 3114 3112 3113 3113 3114 3115 3106 3100 3100 3091 3087 3090 3093 3095 3097 3099 3097 3093 3093 3091 3091 3091 3091 3091 3090 3090 3089
3141 3141 3140 3140 3140 3140 3140 3139 3139 3138 3139 3139 3138 3137 3135 3134 3133 3132 3132 3132 3132 3131 3130 3130 3129 3128 3128 3131 3132 3131 3131 3132 3132 3134 3133 3132 3132 3129 3128 3127 3126 3126 3126 3127 3126 3125 3125 3120 3118 3120 3123 3123 3124 3124 3122 3121 3121 3118 3116 3115 3113 3110 3107 3109 3110 3111 3113 3100 3091 3095 3088 3081 3084 3086 3089 3092 3092 3092 3092 3090 3089 3088 3088 3086 3086 3085 3084 3083
3138 3138 3138 3137 3137 3137 3137 3136 3136 3135 3135 3135 3135 3134 3133 3131 3129 3127 3125 3126 3128 3127 3125 3126 3125 3122 3125 3128 3127 3127 3126 3127 3129 3130 3129 3129 3128 3126 3124 3123 3121 3121 3122 3124 3123 3122 3119 3112 3112 3118 3121 3122 3122 3122 3120 3118 3118 3116 3114 3111 3109 3107 3103 3103 3107 3107 3109 3097 3084 3089 3082 3072 3078 3080 3082 3087 3086 3086 3088 3088 3086 3085 3085 3083 3082 3081 3080 3079
3135 3135 3134 3134 3134 3134 3134 3133 3133 3132 3132 3132 3132 3131 3130 3129 3127 3124 3120 3117 3121 3124 3121 3121 3120 3117 3121 3124 3122 3122 3120 3120 3124 3125 3125 3125 3123 3122 3120 3118 3117 3116 3117 3119 3119 3117 3112 3106 3111 3118 3119 3119 3118 3118 3117 3115 3115 3113 3112 3109 3104 3104 3101 3097 3102 3104 3104 3095 3083 3085 3074 3061 3070 3074 3075 3080 3080 3081 3083 3083 3083 3082 3080 3080 3079 3078 3076 3075
3132 3132 3131 3131 3131 3131 3131 3130 3130 3130 3129 3129 3129 3128 3127 3126 3124 3122 3118 3111 3111 3118 3118 3117 3115 3113 3116 3118 3117 3117 3115 3114 3117 3119 3120 3119 3117 3118 3115 3113 3113 3112 3112 3113 3114 3111 3105 3105 3112 3116 3116 3115 3114 3114 3115 3112 3111 3109 3108 3107 3100 3103 3102 3093 3096 3100 3099 3093 3083 3082 3067 3051 3061 3066 3066 3073 3074 3076 3078 3077 3079 3079 3077 3076 3075 3074 3073 3071
3129 3128 3128 3128 3128 3128 3127 3127 3127 3127 3127 3126 3126 3125 3124 3123 3121 3118 3115 3108 3102 3108 3113 3112 3109 3108 3110 3112 3111 3111 3109 3108 3110 3112 3114 3113 3112 3113 3110 3110 3109 3106 3107 3109 3109 3105 3101 3106 3111 3112 3111 3111 3110 3110 3112 3110 3106 3103 3104 3105 3099 3100 3101 3094 3093 3094 3092 3090 3086 3081 3063 3043 3052 3059 3059 3067 3069 3069 3072 3071 3072 3074 3073 3072 3071 3071 3070 3069
3126 3126 3125 3125 3126 3125 3125 3125 3124 3124 3124 3124 3123 3123 3122 3121 3119 3116 3113 3106 3098 3099 3105 3105 3104 3104 3104 3105 3106 3105 3104 3104 3105 3106 3109 3109 3109 3108 3106 3106 3104 3103 3104 3105 3105 3099 3097 3105 3108 3106 3106 3106 3106 3105 3108 3108 3101 3097 3099 3102 3099 3097 3097 3095 3094 3091 3086 3085 3084 3084 3070 3043 3043 3054 3054 3059 3063 3062 3064 3065 3066 3068 3068 3068 3068 3068 3068 3067
3123 3123 3123 3123 3123 3123 3123 3123 3122 3122 3122 3122 3121 3120 3120 3119 3117 3115 3112 3105 3097 3096 3099 3099 3099 3100 3100 3101 3102 3102 3102 3102 3103 3103 3104 3104 3105 3104 3103 3103 3102 3102 3102 3103 3101 3093 3094 3102 3104 3102 3102 3102 3102 3101 3104 3105 3098 3093 3095 3099 3098 3096 3095 3093 3093 3092 3085 3082 3080 3084 3083 3056 3036 3043 3050 3052 3055 3056 3058 3060 3060 3062 3063 3063 3065 3065 3065 3064
3120 3120 3120 3119 3120 3120 3121 3121 3120 3119 3119 3120 3119 3118 3118 3117 3116 3114 3112 3106 3097 3094 3096 3096 3097 3098 3099 3100 3101 3101 3101 3100 3101 3101 3101 3101 3101 3101 3100 3099 3100 3100 3100 3100 3096 3090 3092 3098 3099 3099 3099 3098 3098 3099 3100 3102 3098 3092 3093 3096 3096 3094 3093 3091 3091 3090 3084 3081 3078 3078 3086 3073 3041 3034 3045 3047 3049 3051 3052 3054 3054 3056 3058 3060 3061 3062 3061 3061
3116 3117 3116 3116 3116 3117 3118 3119 3118 3117 3118 3117 3117 3117 3116 3115 3115 3114 3115 3111 3097 3092 3095 3096 3096 3098 3099 3100 3100 3100 3100 3100 3100 3099 3100 3100 3099 3099 3098 3097 3098 3097 3097 3097 3091 3089 3092 3094 3095 3096 3095 3094 3095 3096 3097 3098 3096 3091 3091 3093 3092 3092 3091 3090 3088 3087 3085 3081 3076 3073 3081 3080 3049 3032 3042 3044 3044 3049 3048 3049 3051 3052 3055 3056 3058 3058 3058 3059
3113 3113 3113 3113 3113 3114 3115 3115 3115 3114 3115 3114 3115 3115 3114 3114 3113 3112 3116 3111 3095 3091 3095 3094 3095 3097 3097 3098 3099 3099 3099 3098 3098 3097 3098 3099 3097 3097 3096 3095 3097 3095 3095 3094 3088 3088 3091 3091 3091 3091 3091 3092 3092 3093 3093 3093 3091 3089 3090 3089 3089 3090 3088 3089 3086 3084 3086 3079 3071 3071 3078 3078 3051 3030 3038 3042 3042 3046 3045 3047 3050 3050 3052 3054 3054 3055 3054 3055
3110 3110 3110 3110 3110 3111 3111 3112 3112 3111 3112 3112 3112 3112 3112 3112 3111 3112 3112 3102 3091 3091 3093 3092 3093 3095 3095 3096 3096 3096 3097 3096 3096 3096 3096 3096 3095 3095 3094 3094 3094 3092 3091 3090 3086 3087 3089 3088 3087 3086 3088 3089 3090 3090 3089 3089 3088 3087 3089 3086 3086 3086 3084 3086 3083 3082 3086 3075 3066 3067 3072 3076 3056 3030 3034 3040 3040 3044 3045 3047 3049 3048 3051 3051 3051 3052 3051 3051
3106 3106 3106 3106 3106 3107 3107 3109 3109 3108 3109 3109 3109 3110 3110 3109 3109 3109 3102 3092 3090 3092 3090 3090 3091 3091 3092 3093 3093 3093 3094 3093 3093 3094 3093 3093 3093 3092 3092 3092 3092 3090 3088 3086 3084 3085 3085 3083 3083 3083 3084 3086 3086 3087 3085 3085 3085 3084 3085 3084 3084 3083 3081 3081 3080 3082 3084 3070 3062 3063 3066 3071 3054 3030 3034 3040 3038 3043 3046 3047 3046 3046 3049 3049 3048 3048 3047 3048
3103 3103 3103 3103 3103 3104 3105 3106 3106 3106 3106 3106 3107 3107 3107 3107 3103 3096 3090 3089 3093 3091 3088 3090 3089 3089 3090 3090 3090 3091 3091 3091 3091 3091 3091 3091 3090 3089 3090 3090 3090 3089 3085 3083 3083 3082 3080 3079 3080 3080 3080 3082 3082 3082 3082 3081 3081 3081 3082 3082 3083 3083 3081 3079 3077 3079 3077 3065 3059 3062 3065 3062 3041 3028 3037 3039 3037 3042 3044 3045 3044 3044 3046 3045 3046 3045 3045 3046
3099 3099 3099 3099 3099 3101 3102 3103 3104 3104 3104 3104 3105 3104 3106 3105 3093 3083 3084 3090 3092 3088 3088 3089 3088 3089 3089 3088 3089 3089 3088 3089 3089 3089 3089 3088 3087 3087 3087 3087 3088 3087 3083 3081 3081 3078 3075 3074 3076 3076 3076 3078 3078 3078 3078 3077 3077 3077 3077 3078 3080 3082 3080 3076 3075 3074 3068 3059 3057 3061 3063 3052 3032 3029 3036 3036 3038 3041 3040 3042 3042 3041 3042 3042 3042 3043 3042 3043
3095 3095 3095 3095 3096 3097 3099 3100 3101 3101 3101 3102 3102 3102 3103 3096 3083 3079 3083 3086 3086 3087 3087 3087 3086 3087 3085 3084 3086 3087 3087 3086 3086 3087 3086 3085 3085 3083 3084 3084 3085 3085 3082 3080 3078 3076 3073 3069 3069 3072 3073 3074 3074 3074 3075 3073 3073 3072 3072 3073 3072 3072 3071 3069 3068 3065 3059 3055 3056 3059 3056 3043 3030 3030 3032 3033 3036 3037 3037 3039 3039 3038 3039 3039 3039 3040 3040 3039
3091 3091 3091 3091 3092 3094 3096 3097 3097 3098 3098 3098 3098 3099 3094 3083 3077 3079 3081 3081 3083 3084 3084 3084 3084 3082 3080 3080 3080 3082 3084 3082 3081 3083 3082 3082 3081 3080 3080 3080 3082 3082 3081 3078 3075 3074 3071 3066 3065 3067 3068 3070 3070 3071 3072 3071 3069 3068 3067 3067 3065 3063 3063 3062 3060 3057 3056 3055 3054 3052 3044 3034 3029 3027 3029 3031 3032 3033 3035 3035 3035 3036 3036 3036 3037 3037 3037 3036
3086 3086 3086 3086 3087 3090 3092 3092 3092 3093 3094 3094 3094 3090 3081 3075 3076 3078 3078 3079 3081 3081 3081 3081 3081 3079 3076 3075 3076 3077 3078 3078 3078 3078 3078 3077 3076 3076 3075 3075 3077 3078 3077 3075 3073 3072 3068 3063 3065 3065 3062 3065 3066 3066 3068 3067 3065 3064 3062 3061 3060 3060 3061 3059 3055 3054 3056 3052 3047 3044 3035 3029 3030 3025 3023 3028 3027 3029 3032 3031 3032 3033 3032 3034 3034 3034 3035 3034
3081 3081 3080 3080 3083 3086 3086 3085 3086 3087 3088 3089 3086 3078 3072 3071 3073 3075 3076 3077 3077 3078 3079 3078 3077 3076 3074 3072 3072 3074 3074 3074 3075 3074 3074 3074 3071 3070 3070 3070 3072 3073 3073 3072 3070 3069 3066 3060 3062 3063 3059 3060 3062 3061 3062 3062 3061 3059 3058 3058 3058 3058 3057 3057 3054 3053 3053 3046 3039 3038 3033 3029 3031 3024 3019 3023 3024 3026 3029 3028 3029 3031 3031 3031 3031 3032 3032 3031
3076 3076 3075 3075 3077 3079 3079 3079 3080 3081 3083 3082 3077 3070 3067 3067 3068 3070 3072 3073 3074 3075 3076 3074 3073 3072 3072 3070 3070 3071 3072 3071 3071 3071 3071 3070 3067 3065 3065 3067 3068 3068 3069 3070 3066 3064 3063 3057 3057 3060 3057 3054 3057 3057 3055 3055 3056 3055 3055 3056 3056 3053 3051 3052 3051 3048 3047 3041 3034 3033 3031 3028 3029 3022 3017 3021 3022 3023 3024 3025 3025 3027 3029 3028 3027 3028 3028 3027
3070 3070 3069 3070 3071 3072 3073 3074 3074 3076 3076 3074 3069 3065 3063 3063 3064 3066 3068 3069 3070 3071 3070 3069 3069 3068 3068 3067 3066 3068 3069 3068 3068 3069 3067 3066 3063 3062 3063 3064 3064 3065 3065 3065 3062 3060 3060 3055 3052 3055 3055 3051 3052 3052 3048 3048 3051 3051 3050 3051 3050 3049 3047 3046 3044 3041 3040 3035 3029 3028 3025 3022 3023 3020 3018 3019 3020 3020 3021 3022 3023 3023 3024 3025 3024 3024 3024 3024
3065 3064 3064 3064 3064 3065 3067 3068 3069 3070 3067 3064 3062 3060 3059 3060 3061 3063 3064 3064 3065 3065 3064 3064 3065 3065 3063 3063 3063 3064 3064 3064 3065 3065 3063 3062 3060 3059 3060 3061 3061 3062 3061 3060 3059 3057 3056 3053 3047 3049 3052 3048 3045 3045 3044 3045 3047 3046 3045 3046 3045 3044 3043 3041 3038 3037 3036 3031 3027 3024 3019 3016 3020 3021 3019 3017 3017 3018 3018 3019 3020 3020 3020 3021 3022 3021 3019 3019
3060 3059 3058 3059 3059 3059 3061 3061 3061 3062 3060 3058 3058 3057 3057 3058 3058 3058 3059 3059 3059 3060 3060 3060 3061 3060 3059 3059 3060 3060 3060 3059 3059 3060 3058 3057 3057 3055 3056 3058 3058 3058 3057 3056 3055 3054 3051 3047 3043 3043 3044 3041 3040 3041 3041 3041 3042 3042 3041 3042 3042 3041 3041 3039 3035 3033 3031 3026 3023 3020 3013 3011 3017 3019 3016 3014 3014 3015 3016 3016 3016 3017 3016 3016 3017 3015 3012 3012
3054 3054 3053 3054 3054 3054 3055 3054 3055 3057 3055 3053 3054 3054 3054 3055 3054 3055 3055 3055 3054 3055 3056 3056 3055 3055 3055 3055 3055 3056 3056 3054 3053 3054 3052 3051 3053 3053 3053 3055 3054 3054 3053 3050 3050 3050 3047 3042 3039 3037 3036 3035 3037 3039 3038 3037 3038 3038 3037 3038 3039 3038 3037 3035 3029 3026 3025 3020 3018 3017 3009 3005 3012 3015 3013 3012 3013 3012 3013 3013 3012 3011 3010 3009 3009 3007 3005 3006
3049 3049 3049 3049 3049 3050 3050 3049 3050 3051 3049 3049 3051 3051 3052 3052 3051 3052 3051 3050 3050 3050 3051 3051 3050 3051 3051 3051 3051 3052 3052 3048 3046 3048 3047 3047 3048 3048 3048 3049 3049 3049 3048 3046 3045 3045 3043 3040 3037 3034 3031 3031 3033 3034 3034 3033 3034 3032 3031 3034 3034 3032 3031 3028 3024 3024 3021 3017 3017 3015 3005 3001 3007 3011 3011 3011 3010 3010 3012 3011 3006 3004 3003 3002 3001 2999 2998 2999
3044 3045 3044 3044 3045 3045 3044 3044 3045 3045 3045 3047 3047 3047 3048 3048 3047 3047 3047 3046 3046 3046 3046 3046 3046 3047 3047 3047 3047 3047 3047 3045 3041 3042 3043 3043 3044 3044 3043 3044 3044 3044 3044 3042 3042 3042 3039 3037 3036 3033 3030 3029 3029 3030 3029 3028 3029 3027 3026 3029 3029 3028 3028 3026 3024 3024 3018 3014 3016 3010 3000 2999 3004 3007 3009 3010 3008 3007 3009 3003 2996 2997 2999 2995 2994 2993 2992 2992
3039 3039 3039 3039 3040 3040 3039 3040 3041 3041 3042 3043 3043 3043 3044 3043 3042 3043 3042 3042 3042 3043 3042 3041 3042 3043 3042 3043 3042 3041 3043 3042 3039 3038 3039 3039 3040 3040 3039 3039 3040 3040 3039 3039 3039 3039 3036 3034 3034 3033 3030 3027 3026 3027 3026 3025 3025 3023 3023 3025 3025 3025 3025 3023 3022 3019 3012 3009 3010 3003 2995 2997 3002 3004 3005 3007 3006 3005 3004 2995 2989 2992 2992 2988 2987 2986 2985 2986
3034 3034 3035 3035 3036 3036 3036 3037 3038 3038 3038 3039 3038 3039 3040 3038 3037 3039 3038 3037 3038 3039 3038 3037 3038 3038 3037 3037 3037 3036 3038 3039 3037 3035 3035 3035 3035 3036 3035 3035 3036 3036 3035 3035 3036 3035 3031 3029 3029 3029 3026 3024 3023 3023 3024 3024 3022 3020 3020 3021 3021 3022 3021 3020 3017 3011 3008 3005 3000 2998 2997 2995 2998 3002 3001 3001 3002 3000 2998 2991 2986 2986 2984 2982 2981 2980 2980 2980
3030 3030 3031 3032 3032 3032 3033 3034 3034 3034 3035 3036 3035 3034 3034 3033 3033 3034 3034 3033 3033 3034 3034 3033 3033 3034 3033 3033 3033 3032 3032 3034 3033 3031 3030 3030 3030 3031 3031 3031 3031 3031 3031 3031 3031 3031 3027 3023 3024 3023 3021 3021 3020 3019 3020 3020 3018 3017 3016 3016 3016 3017 3017 3016 3010 3005 3008 3002 2991 2995 2999 2993 2993 2999 2996 2994 2996 2995 2992 2989 2984 2982 2980 2978 2975 2974 2974 2973
3026 3026 3027 3028 3028 3029 3029 3029 3030 3030 3031 3032 3030 3029 3029 3029 3029 3029 3030 3030 3029 3030 3030 3028 3028 3028 3028 3029 3029 3028 3028 3028 3027 3027 3026 3025 3025 3025 3025 3026 3025 3025 3026 3026 3026 3026 3023 3019 3019 3019 3016 3016 3017 3015 3015 3015 3012 3013 3013 3012 3012 3011 3010 3008 3002 3002 3005 2997 2988 2992 2995 2988 2988 2992 2989 2988 2990 2988 2986 2985 2982 2980 2978 2975 2971 2969 2968 2967
3022 3022 3023 3024 3023 3024 3025 3025 3026 3026 3027 3027 3025 3024 3024 3023 3024 3025 3026 3026 3025 3026 3027 3025 3024 3024 3024 3025 3025 3024 3025 3024 3022 3022 3022 3021 3021 3021 3020 3021 3021 3021 3022 3021 3022 3023 3020 3015 3015 3015 3011 3010 3012 3011 3011 3010 3007 3007 3008 3008 3008 3006 3003 3001 2998 2998 2998 2991 2987 2989 2988 2985 2984 2983 2982 2983 2982 2981 2980 2979 2978 2976 2973 2971 2968 2965 2962 2962
3017 3017 3018 3018 3019 3020 3020 3021 3022 3021 3022 3023 3020 3019 3021 3020 3019 3021 3021 3021 3021 3021 3022 3021 3020 3021 3021 3021 3022 3021 3021 3021 3019 3019 3019 3018 3018 3018 3017 3017 3016 3017 3018 3018 3017 3018 3016 3011 3011 3011 3007 3005 3007 3006 3006 3006 3004 3002 3001 3002 3002 2998 2996 2995 2994 2993 2990 2985 2984 2985 2982 2982 2981 2978 2977 2977 2975 2975 2975 2973 2972 2971 2969 2967 2965 2961 2959 2958
3013 3013 3014 3013 3014 3015 3015 3015 3017 3016 3016 3017 3015 3015 3017 3016 3016 3016 3016 3016 3016 3016 3018 3016 3015 3016 3016 3016 3016 3016 3016 3017 3016 3016 3016 3015 3014 3015 3014 3013 3013 3012 3012 3013 3013 3012 3011 3008 3007 3008 3003 2999 3001 3002 3000 3000 2999 2996 2995 2995 2993 2990 2989 2988 2988 2987 2984 2980 2979 2979 2976 2976 2976 2974 2973 2972 2970 2970 2968 2966 2966 2966 2965 2963 2961 2959 2956 2954
3008 3008 3009 3009 3008 3010 3010 3010 3011 3011 3010 3012 3011 3011 3012 3011 3011 3012 3012 3012 3012 3011 3012 3012 3011 3011 3011 3011 3011 3010 3011 3011 3011 3011 3011 3010 3010 3010 3009 3008 3009 3008 3007 3008 3007 3006 3006 3003 3003 3004 2998 2993 2996 2997 2995 2997 2994 2987 2986 2986 2985 2983 2982 2981 2980 2980 2979 2976 2975 2973 2971 2970 2970 2969 2968 2967 2966 2965 2963 2962 2961 2960 2960 2959 2957 2955 2952 2950